#timestamp,LO_Frequency,Hit,StdDev 
1635678015.4,286046997.6,P
1635678035.2,286046995.8,P
1635678055.0,286046994.9,P
1635678055.9,286046994.9,Y
1635678075.8,286046998.6,P
1635678095.6,286046999.6,N
1635678115.4,286047001.1,N
1635678135.3,286047000.4,N
1635678155.1,286047002.7,N
1635678156.0,286047002.7,N
1635678175.8,286047002.7,N
1635678195.6,286047002.8,N
1635678215.5,286047000.4,N
1635678235.3,286047000.5,N
1635678255.1,286046998.9,N
1635678275.9,286046998.7,N
1635678295.7,286046998.5,N
1635678315.5,286046998.6,N
1635678335.4,286046999.4,N
1635678355.2,286046997.2,N
1635678375.0,286046996.5,N
1635678375.9,286046996.5,N
1635678395.8,286046997.1,N
1635678415.6,286046996.8,N
1635678435.4,286046996.9,N
1635678455.3,286046998.3,N
1635678475.1,286046998.4,N
1635678495.8,286046999.1,N
1635678515.7,286046999.2,N
1635678535.5,286046999.0,N
1635678555.3,286046997.1,N
1635678575.2,286046999.6,N
1635678595.9,286046998.1,N
1635678615.7,286046999.1,N
1635678635.6,286046998.7,N
1635678655.4,286046998.4,N
1635678675.2,286046997.1,N
1635678695.1,286046997.2,N
1635678696.0,286046997.2,N
1635678715.8,286046995.0,N
1635678735.6,286046995.5,N
1635678755.5,286046997.3,N
1635678775.3,286046997.6,N
1635678795.1,286046996.1,Y
1635678815.9,286046998.7,P
1635678835.7,286046998.2,P
1635678855.5,286046999.5,N
1635678875.4,286046999.5,N
1635678895.2,286046997.7,Y
1635678915.0,286046998.9,P
1635678915.9,286046998.9,P
1635678935.8,286046999.4,P
1635678955.6,286046996.8,Y
1635678975.4,286046999.5,P
1635678995.3,286046997.7,P
1635679015.1,286046996.7,P
1635679016.0,286046996.7,Y
1635679035.8,286046999.1,P
1635679055.7,286046997.7,P
1635679075.5,286046995.2,P
1635679095.3,286046995.0,Y
1635679115.2,286047000.7,P
1635679135.9,286047001.0,N
1635679155.7,286046998.7,N
1635679175.6,286046999.5,N
1635679195.4,286046996.7,N
1635679215.2,286046999.1,N
1635679235.1,286046997.9,N
1635679236.0,286046997.9,N
1635679255.8,286046994.9,Y
1635679275.6,286046997.0,P
1635679295.5,286046996.7,P
1635679315.3,286046996.8,P
1635679335.1,286046999.3,N
1635679355.9,286046996.8,N
1635679375.7,286046998.7,N
1635679395.5,286046996.9,N
1635679415.4,286046999.5,N
1635679435.2,286046997.0,N
1635679455.0,286046997.6,N
1635679455.9,286046997.6,N
1635679475.8,286046993.3,Y
1635679495.6,286046999.6,P
1635679515.4,286046996.8,P
1635679535.3,286046996.6,N
1635679555.1,286046995.5,Y
1635679575.8,286046997.4,P
1635679595.7,286046999.6,P
1635679615.5,286046997.2,N
1635679635.3,286046994.9,Y
1635679655.2,286046998.7,P
1635679675.9,286046997.8,P
1635679695.7,286046995.4,P
1635679715.6,286046995.9,Y
1635679735.4,286046999.2,P
1635679755.2,286046999.0,N
1635679775.1,286046998.4,N
1635679776.0,286046998.4,N
1635679795.8,286046998.1,Y
1635679815.6,286046998.5,P
1635679835.5,286046999.5,P
1635679855.3,286046996.7,P
1635679875.1,286046997.8,N
1635679895.9,286046995.4,Y
1635679915.7,286046999.4,P
1635679935.5,286046997.4,P
1635679955.4,286046997.8,N
1635679975.2,286046997.9,N
1635679995.0,286046996.2,Y
1635679995.9,286046996.2,P
1635680015.8,286046995.3,P
1635680035.6,286046993.7,P
1635680055.4,286046995.7,N
1635680075.3,286046995.9,N
1635680095.1,286046996.2,N
1635680096.0,286046996.2,Y
1635680115.8,286046998.2,P
1635680135.7,286047000.5,N
1635680155.5,286046998.9,N
1635680175.3,286046998.3,N
1635680195.2,286046999.6,N
1635680215.9,286046998.3,N
1635680235.7,286046998.2,N
1635680255.6,286046996.6,N
1635680275.4,286046999.2,N
1635680295.2,286046997.3,N
1635680315.1,286046997.6,N
1635680316.0,286046997.6,N
1635680335.8,286046997.2,N
1635680355.6,286046997.5,N
1635680375.5,286046995.3,Y
1635680395.3,286046995.1,P
1635680415.1,286046994.0,P
1635680435.9,286046993.9,P
1635680455.7,286046994.2,Y
1635680475.5,286047001.2,P
1635680495.4,286046998.3,N
1635680515.2,286047000.8,N
1635680535.0,286047000.5,N
1635680535.9,286047000.5,N
1635680555.8,286047002.8,N
1635680575.6,286046998.8,N
1635680595.4,286046997.1,N
1635680615.3,286046997.4,N
1635680635.1,286046997.3,N
1635680636.0,286046997.3,N
1635680655.8,286046995.2,N
1635680675.7,286046997.4,N
1635680695.5,286046998.0,N
1635680715.3,286046995.4,N
1635680735.2,286046995.6,N
1635680755.9,286046995.3,N
1635680775.7,286046996.0,N
1635680795.6,286046995.6,N
1635680815.4,286046995.0,N
1635680835.2,286046996.2,N
1635680855.1,286046995.3,N
1635680856.0,286046995.3,N
1635680875.8,286046992.0,Y
1635680895.6,286046995.7,P
1635680915.5,286046995.0,P
1635680935.3,286046994.9,P
1635680955.1,286046995.6,Y
1635680975.9,286046998.3,P
1635680995.7,286046999.4,N
1635681015.5,286046999.2,N
1635681035.4,286046999.0,N
1635681055.2,286047000.7,N
1635681075.0,286047000.4,N
1635681075.9,286047000.4,N
1635681095.8,286046998.8,N
1635681115.6,286046999.0,N
1635681135.4,286046998.8,N
1635681155.2,286046999.5,N
1635681175.1,286046998.9,N
1635681176.0,286046998.9,N
1635681195.8,286046998.9,N
1635681215.7,286046998.2,N
1635681235.5,286046999.0,N
1635681255.3,286047000.7,N
1635681275.1,286047002.3,N
1635681295.9,286047000.1,N
1635681315.7,286047002.7,N
1635681335.5,286047002.6,N
1635681355.4,286047001.7,N
1635681375.2,286047004.1,N
1635681395.0,286047003.5,N
1635681395.9,286047003.5,N
1635681415.8,286047001.9,N
1635681435.6,286047000.1,N
1635681455.4,286047001.1,N
1635681475.3,286046999.9,N
1635681495.1,286047001.1,N
1635681515.8,286046998.4,N
1635681535.7,286046994.9,Y
1635681555.5,286046995.6,P
1635681575.3,286046995.4,N
1635681595.2,286046997.6,N
